Content
SEND FEEDBACK

Daily
Averages
Monthly
Summary
United States of America

POTTS JUNCTION, GUAM


Home > North America > United States > Guam
Elevation: 360 feet     Latitude: 13 33N     Longitude: 144 50E

WEATHER
 
SELECT A DAY
Number of Records: 209,379;   Date Range: 1/1/95 - 9/21/14
 
SHARE

PRINT THIS DATA

[ ← Previous Day ]
WEATHER ALMANAC - AUGUST 2, 2013
[ Next Day → ]
[ °C ]   °F
We're sorry. There is no daily almanac available for Potts Junction, Guam on August 2, 2013.
WEATHER BY HOUR - AUGUST 2, 2013
[ °C ]   °F
Local TimeTemperatureDewpointHumidityBarometerVisibilityWind DirectionWind SpeedGust SpeedPrecipitationEventsConditions
1:54 AM84.9 °F75.0 °F72 %29.85 in10.0 miEast (80°)10.4 mphScattered Clouds
2:54 AM84.0 °F75.0 °F74 %29.83 in10.0 miEast (80°)9.2 mphPartly Cloudy
3:54 AM84.9 °F75.0 °F72 %29.83 in10.0 miEast (80°)9.2 mphScattered Clouds
4:54 AM84.9 °F73.9 °F69 %29.85 in10.0 miEast (90°)10.4 mphPartly Cloudy
5:54 AM82.9 °F75.9 °F79 %29.87 in5.0 miESE (110°)6.9 mph18.4 mph0.01 inRainLight Rain
6:54 AM82.9 °F77.0 °F82 %29.88 in10.0 miEast (80°)12.7 mph17.3 mph0.00 inClear
7:54 AM84.9 °F75.9 °F74 %29.88 in10.0 miEast (80°)12.7 mph19.6 mphPartly Cloudy
8:54 AM87.1 °F75.9 °F69 %29.89 in10.0 miEast (80°)15.0 mphPartly Cloudy
9:54 AM88.0 °F75.9 °F67 %29.89 in10.0 miEast (90°)13.8 mphScattered Clouds
10:11 AM87.8 °F75.2 °F66 %29.91 in10.0 miESE (110°)13.8 mph21.9 mphMostly Cloudy
10:33 AM86.0 °F77.0 °F74 %29.90 in10.0 miSE (130°)9.2 mphMostly Cloudy
10:54 AM87.1 °F75.9 °F69 %29.87 in10.0 miESE (120°)8.1 mphPartly Cloudy
11:54 AM89.1 °F77.0 °F67 %29.84 in10.0 miEast (100°)9.2 mphPartly Cloudy
12:54 PM90.0 °F75.9 °F63 %29.82 in10.0 miEast (100°)10.4 mphClear
1:54 PM90.0 °F75.9 °F63 %29.81 in10.0 miEast (90°)10.4 mphPartly Cloudy
2:54 PM90.0 °F75.9 °F63 %29.81 in10.0 miESE (120°)10.4 mphScattered Clouds
3:19 PM89.6 °F75.2 °F62 %29.84 in10.0 miESE (110°)12.7 mphMostly Cloudy
3:45 PM89.6 °F75.2 °F62 %29.83 in10.0 miEast (80°)11.5 mphScattered Clouds
3:54 PM90.0 °F75.9 °F63 %29.81 in10.0 miEast (90°)13.8 mphScattered Clouds
4:54 PM90.0 °F75.0 °F61 %29.81 in10.0 miEast (90°)12.7 mphPartly Cloudy
5:54 PM88.0 °F75.9 °F67 %29.83 in10.0 miEast (90°)9.2 mphPartly Cloudy
6:54 PM86.0 °F75.9 °F72 %29.84 in10.0 miEast (80°)5.8 mphScattered Clouds
7:21 PM86.0 °F75.2 °F70 %29.88 in10.0 miEast (80°)6.9 mphThunderstormThunderstorm
7:54 PM86.0 °F75.9 °F72 %29.87 in10.0 miENE (60°)6.9 mphThunderstormThunderstorm
8:02 PM84.2 °F77.0 °F79 %29.90 in10.0 miNE (40°)5.8 mphScattered Clouds
8:54 PM84.9 °F75.9 °F74 %29.90 in10.0 miNE (50°)5.8 mphScattered Clouds
9:54 PM84.9 °F78.1 °F80 %29.90 in10.0 miEast (90°)4.6 mphScattered Clouds
10:54 PM86.0 °F77.0 °F74 %29.91 in10.0 miEast (80°)8.1 mphScattered Clouds
11:54 PM84.9 °F77.0 °F77 %29.88 in10.0 miEast (80°)6.9 mph0.00 inScattered Clouds
Hourly data recorded from PGUM, located miles away from Potts Junction, Guam







STORIES FROM OUR PARTNERS